Miscellaneous Local Product
Issued by NWS North Platte, NE

Home | Current Version | Previous Version | Graphics & Text | Print | Product List | Glossary On
Versions: 1 2 3 4 5 6 7 8 9 10 11 12 13 14 15 16 17 18 19 20 21 22 23 24 25 26 27 28 29 30 31 32 33 34 35 36 37 38 39 40 41 42 43 44 45 46 47 48 49 50
000
AXUS43 KLBF 272210
MISLBF


WESTERN AND NORTH CENTRAL NEBRASKA HOURLY WEATHER ROUNDUP
NATIONAL WEATHER SERVICE NORTH PLATTE NE
500 PM CDT FRI MAY 27 2016

NOTE: "FAIR" INDICATES FEW OR NO CLOUDS BELOW 12,000 FEET WITH NO
SIGNIFICANT WEATHER AND/OR OBSTRUCTIONS TO VISIBILITY.

NOTE: STATIONS NOT REPORTING VARIABLES SUCH AS SKY/WEATHER OR
PRESSURE ARE PROVIDED BY RAWS AND APRS NETWORKS AND ARE NOT UNDER
NATIONAL WEATHER SERVICE QUALITY CONTROL.

...OBSERVATIONS IN AND NEAR THE EASTERN PANHANDLE OF NEBRASKA...

CITY           SKY/WX    TMP DP  RH WIND       PRES   REMARKS
PINE RIDGE     CLOUDY    62  44  51 NE3       29.85F
CHADRON        CLOUDY    60  45  57 E3        29.85F
ALLIANCE       PTSUNNY   58  48  69 NE9       29.86F
SIDNEY         CLOUDY    56  45  66 N12       29.88S
CRESCENT LAKE    N/A     60  45  57 NE9G16      N/A
BIG SPRINGS      N/A     58  51  79 N12         N/A
$$

...OBSERVATIONS IN NORTHERN NEBRASKA AND FAR SOUTHERN SOUTH DAKOTA...

CITY           SKY/WX    TMP DP  RH WIND       PRES   REMARKS
WINNER         FAIR      69  52  54 NE8       29.78F
VALENTINE      MOSUNNY   66  47  50 NE15      29.80F
THEDFORD       PTSUNNY   67  53  59 N10       29.79F
AINSWORTH      CLOUDY    66  52  59 N12       29.78F
O`NEILL        CLOUDY    71  59  67 E9        29.74F
ORD            MOSUNNY   71  56  58 N6        29.72F
BROKEN BOW     PTSUNNY   69  57  65 NE15      29.73F
BUTTE            N/A     66  58  75 NE9         N/A
CHAMBERS         N/A     74  59  59 E3          N/A
EWING            N/A     74  61  63 MISG        N/A
$$

...OBSERVATIONS IN SOUTHWEST NEBRASKA AND FAR NORTHEAST COLORADO...

CITY           SKY/WX    TMP DP  RH WIND       PRES   REMARKS
WRAY           CLOUDY    55  52  88 N23G31    29.80R
HOLYOKE        RAIN      54  48  82 N17       29.83
IMPERIAL       HVY RAIN  54  52  93 N21       29.79R VSB 3/4
OGALLALA       TSTM      54  51  90 W16       29.84R
NORTH PLATTE   PTSUNNY   66  54  65 NE16      29.75F
MCCOOK         CLOUDY    62  56  80 E13       29.73S
LEXINGTON      CLOUDY    67  58  72 E8        29.73F
PAXTON           N/A     59  56  88 N10         N/A
STAPLETON        N/A     65  55  69 NE3         N/A
GOTHENBURG       N/A     66  53  64 E9          N/A
CALLAWAY         N/A     66  58  76 NE9         N/A
$$

...OBSERVATIONS IN CENTRAL LINCOLN COUNTY AREA...

CITY           SKY/WX    TMP DP  RH WIND       PRES   REMARKS
N.P. AIRPORT   PTSUNNY   66  54  65 NE16      29.75F
N.P. DOWNTOWN    N/A     64  54  71 N9          N/A
N.P. SOUTHEAST   N/A     65  55  69 N6G13       N/A
N.P. HILLCREST   N/A     64  54  70 NE17G25     N/A
$$

...SOME OBSERVATIONS FROM AROUND THE REGION...

CITY           SKY/WX    TMP DP  RH WIND       PRES   REMARKS
DENVER         CLOUDY    57  43  59 N13G26    29.89F
LARAMIE        CLOUDY    55  35  47 NE13      29.92F
CHEYENNE       CLOUDY    53  42  66 E10       29.92S
SCOTTSBLUFF    MOSUNNY   59  44  57 MISG      29.87F
RAPID CITY     CLOUDY    60  49  66 S14       29.85R
BISMARCK       PTSUNNY   72  46  39 CALM      29.80F
PIERRE         PTSUNNY   70  52  52 NE5       29.77F
SIOUX FALLS    PTSUNNY   75  58  55 NE6       29.72F
OMAHA          PTSUNNY   78  59  51 E5        29.70F
GRAND ISLAND   TSTM      66  59  78 E3        29.72F
KANSAS CITY    CLOUDY    70  68  93 E5        29.72F
WICHITA        TSTM      69  65  86 E14       29.67R
OKLAHOMA CITY  MOSUNNY   81  64  56 S14       29.67F
DALLAS         CLOUDY    81  63  54 S14       29.72S
AMARILLO       MOSUNNY   77  39  25 W13G20    29.77F
DODGE CITY     MOSUNNY   72  45  37 SW10      29.65F
HAYS           MOSUNNY   48 N/A N/A NE10      29.64F
GOODLAND       MOSUNNY   61  54  77 NE14G24   29.73F
$$




USA.gov is the U.S. government's official web portal to all federal, state and local government web resources and services.